Regional Weather Roundup
Issued by NWS

Home | Current Version | Previous Version | Graphics & Text | Print | Product List | Glossary On
Versions: 1 2 3 4 5 6 7 8 9 10 11 12 13 14 15 16 17 18 19 20 21 22 23 24 25 26 27 28 29 30 31 32 33 34 35 36 37 38 39 40 41 42 43 44 45 46 47 48 49 50
000
ASUS43 KDTX 291310
RWRMI
MICHIGAN HOURLY REGIONAL WEATHER ROUNDUP
NATIONAL WEATHER SERVICE DETROIT/PONTIAC MI
800 AM EST THU JAN 29 2015

NOTE: "FAIR" INDICATES FEW OR NO CLOUDS BELOW 12,000 FEET WITH NO
SIGNIFICANT WEATHER AND/OR OBSTRUCTION TO VISIBILITY.

MIZ047>049-052>055-059>063-066>070-074>076-081>083-291400-
SOUTHEAST LOWER MICHIGAN

CITY           SKY/WX    TMP DP  RH WIND       PRES   REMARKS
ADRIAN         CLOUDY    29  23  78 S8        29.78F
ALMA           CLOUDY    28  24  85 E3        29.76F
ANN ARBOR      CLOUDY    29  23  78 E6        29.79F
BAD AXE        FLURRIES  26  22  86 S17       29.82F
DETROIT CITY   CLOUDY    31  20  63 SE8       29.83F
DETROIT        CLOUDY    29  22  75 SE7       29.82F
FLINT          CLOUDY    30  21  69 S14       29.78F
GROSSE ILE     CLOUDY    30  21  69 SE9       29.80F
HILLSDALE      CLOUDY    29  26  86 S7        29.74S
HOWELL         CLOUDY    28  24  86 SE10      29.76F

CITY           SKY/WX    TMP DP  RH WIND       PRES   REMARKS
JACKSON        CLOUDY    30  23  75 S9        29.75F
LAMBERTVILLE   CLOUDY    32  23  69 SE5       29.79F
LANSING        CLOUDY    30  23  75 SE12      29.75F
LAPEER         NOT AVBL
MASON          CLOUDY    29  23  78 S8        29.75F
MONROE         CLOUDY    30  25  80 SE5       29.79F
MT. CLEMENS    LGTSLEET  28  21  74 SE10      29.80F
PONTIAC        LGTSLEET  28  19  69 SE9       29.78F
PORT HOPE        N/A     26  21  81 S16G24    29.80F
PORT HURON     CLOUDY    28  16  59 S10       29.85F
TRI CITIES     FLURRIES  28  23  81 SE5       29.78F
YPSILANTI      CLOUDY    31  22  69 SE7       29.80F
$$
MIZ043>046-050>051-056>058-064>065-071>073-077>080-291400-
SOUTHWEST LOWER MICHIGAN

CITY           SKY/WX    TMP DP  RH WIND       PRES   REMARKS
BATTLE CREEK   CLOUDY    33  24  69 S7        29.73S
BENTON HARBOR  CLOUDY    33  26  75 S3        29.72R
BIG RAPIDS     CLOUDY    26  25  96 CALM      29.74S
COLDWATER      CLOUDY    32  25  75 SE6       29.73S
HOLLAND        CLOUDY    33  26  75 CALM      29.73S
GRAND RAPIDS   CLOUDY    30  25  81 E7        29.73F
KALAMAZOO      CLOUDY    32  24  72 S6        29.73S
MARSHALL       CLOUDY    32  24  72 SE6       29.73S
MUSKEGON       CLOUDY    31  25  78 E3        29.74S
$$
MIZ016>042-291400-
NORTHERN LOWER MICHIGAN

CITY           SKY/WX    TMP DP  RH WIND       PRES   REMARKS
ALPENA         LGT SNOW  23  21  92 S6        29.80F FOG
BEAVER ISLAND  LGT SNOW  27  24  90 CALM      29.77S VSB 1
BELLAIRE       LGT SNOW  26  24  92 CALM      29.77S
CADILLAC       FLURRIES  23  20  89 CALM      29.72F
CHARLEVOIX     CLOUDY    25  23  92 CALM      29.80S
FRANKFORT      CLOUDY    27  25  91 CALM      29.76S
GAYLORD        LGT SNOW  21  21 100 S8        29.73F VSB 3/4
GRAYLING       LGT SNOW  22  21  95 SE3       29.76S VSB 1
HARBOR SPRINGS CLOUDY    25  23  91 CALM      29.77S
HOUGHTON LAKE  LGT SNOW  23  20  88 SE3       29.75F FOG
MANISTEE       CLOUDY    27  21  80 SE6       29.76S
OSCODA         LGT SNOW  25  23  93 S6        29.79F
PELLSTON       CLOUDY    25  22  88 CALM      29.78S
TRAVERSE CITY  LGT SNOW  25  22  88 CALM      29.76S FOG
$$
MIZ007>008-015-291400-
EASTERN UPPER MICHIGAN

CITY           SKY/WX    TMP DP  RH WIND       PRES   REMARKS
KINROSS        CLOUDY    25  21  86 CALM      29.77F VSB 1
MACKINAC ISLAN CLOUDY    26  20  80 S7        29.77S
NEWBERRY       LGT SNOW  22  21  98 CALM      29.75F
S. S. MARIE    LGT SNOW  24  22  91 CALM      29.78S VSB 1
$$
MIZ004>006-011>014-085-291400-
CENTRAL UPPER MICHIGAN

CITY           SKY/WX    TMP DP  RH WIND       PRES   REMARKS
MANISTIQUE     LGT SNOW  30  30 100 CALM      29.76R
ESCANABA       CLOUDY    28  25  86 CALM      29.78R
MENOMINEE      CLOUDY    28  25  86 NW7       29.79R
SAWYER-GWINN   LGT SNOW  27  25  93 NW6       29.75R
$$
MIZ001>003-009>011-084-291400-
WESTERN UPPER MICHIGAN

CITY           SKY/WX    TMP DP  RH WIND       PRES   REMARKS
IRON MOUNTAIN  CLOUDY    27  24  89 NW9       29.77R FOG
HOUGHTON       CLOUDY    29  24  82 NW16      29.80R
COPPER HARBOR    N/A     32  26  78 N26       29.78R
IRONWOOD       CLOUDY    28  25  86 NW16      29.87R
$$

ABBREVIATIONS USED IN REMARKS
   TC - TEMPERATURE IN CELSIUS
  WCI - WIND CHILL INDEX
   HX - HEAT INDEX
  VSB - VISIBILITY



USA.gov is the U.S. government's official web portal to all federal, state and local government web resources and services.